Probability
0 0 0 0 0 0 0 0 0 0 0 0 0 0 0 0 0 0 0 0 0 0 0 0 0 0 0 0 0 0 0 0 0 0 0 0 0 0 0 0 0 0 0 0
0 0 0 0 0 0 0 0 0 0 0 0 0 0 0 0 0 0 0 0 0 0 0 0 0 0 0 0 0 0 0 0 0 0 0 0 0 0 0 0 0 0 0 0
0 0 0 0 0 0 0 0 0 0 0 0 0 0 0 0 0 0 0 0 0 0 0 0 0 0 0 0 0 0 0 0 0 0 0 0 0 0 0 0 0 0 0 0
0 0 0 0 0 0 0 0 0 0 0 0 0 0 0 0 0 0 0 0 0 0 0 0 0 0 0 0 0 0 0 0 0 0 0 0 0 0 0 0 0 0 0 0
0 0 0 0 0 0 0 0 0 0 0 0 0 0 0 0 0 0 0 0 0 0 0 0 0 0 0 0 0 0 0 0 0 0 0 0 0 0 0 0 0 0 0 0
0 0 0 0 0 0 0 0 0 0 0 0 0 0 0 0 0 0 0 0 0 0 0 0 0 0 0 0 0 0 0 0 0 0 0 0 0 0 0 0 0 0 0 0
0 0 0 0 0 0 0 0 0 0 0 0 0 0 0 0 0 0 0 0 0 0 0 0 0 0 0 0 0 0 0 0 0 0 0 0 0 0 0 0 0 0 0 0
0 0 0 0 0 0 0 0 0 0 0 0 0 0 0 0 0 0 0 0 0 0 0 0 0 0 0 0 0 0 0 0 0 0 0 0 0 0 0 0 0 0 0 0
0 0 0 0 0 0 0 0 0 0 0 0 0 0 0 0 0 0 0 0 0 0 0 0 0 0 0 0 0 0 0 0 0 0 0 0 0 0 0 0 0 0 0 0
0 0 0 0 0 0 0 0 0 0 0 0 0 0 0 0 0 0 0 0 0 0 0 0 0 0 0 0 0 0 0 0 0 0 0 0 0 0 0 0 0 0 0 0
0 0 0 0 0 0 0 0 0 0 0 0 0 0 0 0 0 0 0 0 0 0 0 0 0 0 0 0 0 0 0 0 0 0 0 0 0 0 0 0 0 0 0 0
0 0 0 0 0 0 0 0 0 0 0 0 0 0 0 0 0 0 0 0 0 0 0 0 0 0 0 0 0 0 0 0 0 0 0 0 0 0 0 0 0 0 0 0
0 0 0 0 0 0 0 0 0 0 0 0 0 0 0 0 0 0 0 0 0 0 0 0 0 0 0 0 0 0 0 0 0 0 0 0 0 0 0 0 0 0 0 0
0 0 0 0 0 0 0 0 0 0 0 0 0 0 0 0 0 0 0 0 0 0 0 0 0 0 0 0 0 0 0 0 0 0 0 0 0 0 0 0 0 0 0 0
0 0 0 0 0 0 0 0 0 0 0 0 0 0 0 0 0 0 0 0 0 0 0 0 0 0 0 0 0 0 0 0 0 0 0 0 0 0 0 0 0 0 0 0
0 0 0 0 0 0 0 0 0 0 0 0 0 0 0 0 0 0 0 0 0 0 0 0 0 0 0 0 0 0 0 0 0 0 0 0 0 0 0 0 0 0 0 0
0 0 0 0 0 0 0 0 0 0 0 0 0 0 0 0 0 0 0 0 0 0 0 0 0 0 0 0 0 0 0 0 0 0 0 0 0 0 0 0 0 0 0 0
0 0 0 0 0 0 0 0 0 0 0 0 0 0 0 0 0 0 0 0 0 0 0 0 0 0 0 0 0 0 0 0 0 0 0 0 0 0 0 0 0 0 0 0
0 0 0 0 0 0 0 0 0 0 0 0 0 0 0 0 0 0 0 0 0 0 0 0 0 0 0 0 0 0 0 0 0 0 0 0 0 0 0 0 0 0 0 0
0 0 0 0 0 0 0 0 0 0 0 0 0 0 0 0 0 0 0 0 0 0 0 0 0 0 0 0 0 0 0 0 0 0 0 0 0 0 0 0 0 0 0 0
0 0 0 0 0 0 0 0 0 0 0 0 0 0 0 0 0 0 0 0 0 0 0 0 0 0 0 0 0 0 0 0 0 0 0 0 0 0 0 0 0 0 0 0
0 0 0 0 0 0 0 0 0 0 0 0 0 0 0 0 0 0 0 0 0 0 0 0 0 0 0 0 0 0 0 0 0 0 0 0 0 0 0 0 0 0 0 0
0 0 0 0 0 0 0 0 0 0 0 0 0 0 0 0 0 0 0 0 0 0 0 0 0 0 0 0 0 0 0 0 0 0 0 0 0 0 0 0 0 0 0 0
0 0 0 0 0 0 0 0 0 0 0 0 0 0 0 0 0 0 0 0 0 0 0 0 0 0 0 0 0 0 0 0 0 0 0 0 0 0 0 0 0 0 0 0
0 0 0 0 0 0 0 0 0 0 0 0 0 0 0 0 0 0 0 0 0 0 0 0 0 0 0 0 0 0 0 0 0 0 0 0 0 0 0 0 0 0 0 0
0 0 0 0 0 0 0 0 0 0 0 0 0 0 0 0 0 0 0 0 0 0 0 0 0 0 0 0 0 0 0 0 0 0 0 0 0 0 0 0 0 0 0 0
0 0 0 0 0 0 0 0 0 0 0 0 0 0 0 0 0 0 0 0 0 0 0 0 0 0 0 0 0 0 0 0 0 0 0 0 0 0 0 0 0 0 0 0
Height
5602 5608 5615 5622 5629 5637 5644 5651 5657 5662 5666 5670 5674 5678 5681 5684 5687 5689 5690 5692 5692 5692 5692 5692 5691 5690 5689 5688 5685 5682 5679 5676 5672 5667 5662 5656 5649 5641 5633 5624 5614 5604 5594 5584
5604 5610 5617 5623 5630 5636 5643 5649 5655 5659 5664 5666 5669 5673 5676 5679 5681 5683 5684 5685 5685 5685 5685 5685 5684 5683 5681 5679 5677 5674 5670 5666 5662 5656 5650 5644 5636 5627 5618 5609 5599 5589 5579 5569
5608 5612 5618 5625 5631 5637 5643 5648 5652 5657 5662 5662 5665 5668 5671 5673 5675 5677 5678 5678 5678 5678 5678 5677 5676 5675 5673 5671 5668 5665 5661 5656 5651 5645 5638 5631 5622 5613 5604 5595 5585 5575 5565 5554
5608 5614 5619 5627 5629 5634 5639 5644 5648 5652 5654 5656 5660 5663 5665 5668 5669 5670 5671 5671 5671 5671 5671 5670 5669 5667 5665 5662 5659 5655 5651 5645 5639 5633 5625 5617 5608 5599 5590 5581 5571 5561 5550 5539
5608 5612 5617 5623 5626 5630 5635 5639 5643 5646 5649 5651 5655 5657 5659 5661 5663 5664 5664 5665 5664 5664 5664 5663 5661 5659 5656 5653 5649 5645 5640 5634 5628 5620 5612 5604 5595 5586 5576 5567 5557 5546 5534 5522
5607 5611 5616 5620 5623 5626 5632 5635 5638 5641 5643 5646 5649 5651 5655 5655 5656 5657 5657 5658 5658 5657 5656 5655 5652 5650 5647 5643 5639 5634 5629 5622 5615 5607 5599 5590 5581 5572 5563 5554 5543 5531 5518 5503
5604 5608 5613 5617 5619 5623 5629 5632 5633 5635 5638 5641 5643 5646 5648 5648 5649 5650 5651 5651 5650 5649 5648 5646 5643 5640 5637 5633 5628 5623 5617 5610 5602 5594 5586 5577 5568 5559 5550 5540 5528 5516 5502 5487
5603 5607 5613 5613 5616 5620 5623 5625 5627 5630 5633 5636 5638 5640 5641 5643 5643 5644 5644 5643 5642 5641 5639 5636 5634 5631 5627 5623 5617 5612 5605 5598 5590 5582 5573 5565 5556 5546 5535 5523 5511 5497 5482 5467
5603 5608 5609 5611 5613 5616 5619 5622 5624 5627 5629 5631 5633 5634 5635 5636 5637 5637 5636 5635 5634 5632 5630 5627 5624 5621 5617 5611 5606 5600 5593 5585 5578 5570 5561 5552 5542 5532 5519 5506 5492 5477 5461 5446
5599 5603 5605 5608 5610 5613 5615 5618 5621 5623 5625 5626 5628 5629 5629 5629 5629 5629 5628 5627 5625 5623 5621 5618 5614 5610 5605 5600 5594 5588 5581 5574 5567 5559 5550 5540 5528 5515 5502 5488 5473 5457 5440 5423
5596 5599 5602 5604 5607 5610 5612 5614 5616 5618 5620 5621 5622 5622 5622 5622 5622 5621 5620 5619 5617 5614 5611 5608 5604 5599 5595 5589 5583 5577 5570 5563 5555 5547 5537 5527 5514 5500 5485 5469 5451 5434 5418 5400
5594 5597 5599 5602 5604 5606 5608 5610 5612 5613 5615 5615 5616 5616 5616 5615 5615 5613 5612 5610 5607 5605 5601 5598 5593 5589 5583 5578 5572 5566 5559 5551 5543 5534 5523 5512 5500 5487 5469 5451 5434 5415 5397 5381
5591 5593 5596 5598 5601 5603 5605 5606 5607 5608 5609 5609 5609 5609 5609 5608 5607 5605 5603 5601 5598 5595 5592 5587 5583 5578 5573 5568 5562 5555 5547 5539 5530 5519 5508 5496 5482 5469 5456 5441 5420 5400 5384 5369
5588 5591 5593 5595 5598 5599 5601 5602 5602 5603 5603 5603 5603 5602 5601 5600 5598 5596 5594 5592 5589 5586 5582 5577 5573 5568 5563 5557 5550 5543 5535 5526 5515 5504 5491 5478 5464 5449 5434 5419 5406 5391 5375 5358
5585 5588 5590 5592 5594 5595 5595 5596 5597 5597 5597 5596 5596 5595 5593 5592 5590 5588 5586 5583 5580 5576 5572 5568 5563 5558 5552 5546 5538 5530 5521 5511 5500 5488 5474 5461 5446 5432 5416 5401 5387 5374 5363 5349
5581 5584 5586 5587 5588 5589 5590 5590 5590 5590 5589 5589 5588 5587 5585 5584 5582 5579 5577 5574 5570 5566 5562 5558 5553 5547 5541 5534 5526 5517 5507 5496 5484 5472 5458 5444 5430 5415 5401 5386 5373 5360 5348 5336
5576 5578 5580 5581 5582 5582 5582 5582 5582 5582 5581 5581 5580 5578 5577 5575 5573 5570 5567 5564 5560 5556 5552 5547 5542 5536 5529 5521 5512 5503 5492 5480 5468 5455 5441 5428 5413 5399 5385 5372 5360 5349 5336 5324
5570 5572 5573 5574 5574 5574 5574 5574 5574 5573 5573 5572 5571 5570 5568 5566 5563 5560 5557 5553 5550 5546 5541 5536 5530 5524 5516 5508 5499 5488 5477 5465 5452 5439 5425 5411 5397 5383 5371 5359 5348 5337 5327 5317
5562 5564 5564 5565 5565 5566 5566 5566 5565 5565 5564 5563 5562 5561 5559 5556 5553 5550 5547 5544 5540 5536 5531 5525 5519 5511 5503 5494 5484 5473 5461 5449 5436 5423 5409 5395 5382 5370 5359 5348 5337 5327 5317 5309
5554 5555 5556 5557 5557 5557 5557 5557 5557 5556 5556 5555 5553 5552 5549 5547 5544 5541 5538 5534 5530 5525 5520 5514 5507 5499 5489 5479 5469 5457 5445 5433 5420 5407 5394 5381 5369 5359 5348 5337 5327 5318 5310 5303
5546 5547 5548 5549 5549 5549 5549 5549 5548 5548 5547 5546 5544 5542 5540 5537 5535 5532 5528 5524 5519 5514 5508 5501 5493 5485 5475 5464 5453 5441 5429 5417 5404 5391 5379 5367 5357 5347 5337 5327 5318 5311 5304 5299
5538 5539 5540 5540 5540 5541 5540 5540 5540 5539 5538 5536 5535 5533 5531 5528 5525 5522 5518 5513 5508 5502 5495 5488 5479 5469 5459 5448 5437 5425 5413 5401 5388 5376 5365 5355 5346 5336 5327 5319 5311 5305 5300 5296
5530 5531 5531 5532 5532 5532 5532 5531 5531 5530 5529 5527 5525 5523 5521 5518 5515 5511 5507 5502 5496 5489 5481 5473 5464 5454 5443 5432 5421 5409 5397 5385 5373 5363 5353 5343 5334 5325 5318 5311 5305 5300 5296 5294
5522 5522 5523 5523 5523 5523 5523 5522 5522 5521 5519 5518 5516 5513 5511 5508 5504 5500 5495 5489 5482 5475 5466 5457 5448 5438 5428 5417 5406 5394 5382 5370 5360 5350 5341 5331 5323 5315 5309 5303 5299 5295 5293 5293
5514 5514 5515 5515 5515 5514 5514 5513 5513 5512 5510 5508 5506 5504 5501 5497 5493 5488 5482 5475 5468 5460 5451 5442 5432 5423 5412 5402 5390 5378 5367 5356 5347 5338 5329 5321 5313 5307 5301 5297 5294 5292 5292 5293
5506 5506 5506 5506 5506 5506 5506 5505 5504 5502 5501 5499 5496 5493 5489 5485 5480 5475 5468 5461 5453 5445 5436 5427 5418 5408 5397 5386 5375 5364 5353 5344 5334 5325 5317 5310 5304 5299 5295 5292 5290 5291 5292 5295
5498 5498 5498 5498 5498 5498 5497 5496 5495 5493 5491 5488 5485 5482 5477 5472 5467 5461 5454 5446 5438 5430 5421 5412 5403 5393 5382 5371 5361 5351 5341 5332 5323 5315 5308 5302 5296 5292 5289 5288 5289 5291 5295 5298
Wind_Speed
25 27 26 26 26 27 27 26 25 23 22 21 22 21 22 23 24 25 26 27 29 31 32 32 33 34 35 36 38 39 40 42 43 45 47 51 55 60 64 68 71 71 71 70
22 24 25 25 24 24 25 24 23 23 21 22 23 23 23 24 25 26 27 29 30 31 32 33 34 35 36 38 39 41 42 43 45 47 51 55 60 64 68 71 70 69 68 69
22 21 22 22 22 22 22 22 23 23 21 24 25 25 26 26 27 28 28 29 30 31 32 33 34 36 38 39 40 41 43 45 47 51 55 60 64 68 70 69 67 66 68 71
21 21 21 20 22 23 24 24 25 26 27 29 28 27 28 29 28 28 28 29 30 31 32 34 35 37 38 40 41 43 44 47 51 55 60 64 67 68 67 65 65 67 72 77
22 21 20 20 20 23 24 24 26 27 29 31 29 30 30 29 29 29 29 30 31 32 33 34 36 38 39 41 42 44 46 50 54 59 63 66 67 65 64 64 67 72 77 83
22 21 21 21 21 21 22 22 25 26 28 28 28 30 28 28 29 29 29 30 30 31 33 35 37 38 39 41 43 46 49 54 58 62 64 65 63 62 63 67 72 77 82 88
20 20 19 18 19 20 19 19 22 24 24 25 26 26 25 27 28 28 28 29 31 33 34 36 37 38 39 41 45 49 53 57 61 63 62 61 61 63 67 72 77 81 87 92
17 16 15 16 17 17 17 19 21 22 22 23 24 25 25 25 26 27 28 30 32 33 35 35 36 38 41 44 48 52 56 59 60 59 58 59 62 67 72 77 81 86 91 96
17 15 16 16 16 17 17 18 20 20 21 22 22 23 25 26 27 28 30 30 32 32 33 35 37 40 43 47 51 55 57 57 56 56 58 61 66 71 76 82 87 91 96 99
19 18 17 17 18 18 18 18 18 19 20 21 22 23 25 26 27 28 29 30 31 32 34 37 40 43 46 50 53 54 53 53 54 56 60 65 71 76 81 86 91 95 98 98
18 18 18 18 18 17 16 16 16 17 17 18 19 21 22 24 26 27 29 30 32 34 37 39 42 46 49 51 51 50 51 52 55 59 63 69 74 80 85 90 95 98 97 93
16 17 17 16 15 13 13 12 13 14 15 17 19 21 23 25 27 29 31 33 34 36 39 42 45 47 48 47 47 48 50 54 58 63 68 73 78 83 88 93 96 96 91 85
15 14 14 13 12 12 12 13 14 16 18 20 22 24 26 28 29 31 32 34 36 38 41 44 46 45 45 45 46 49 53 57 62 67 73 78 83 87 90 93 94 89 82 77
15 14 14 13 13 13 14 16 18 20 22 24 26 28 29 30 31 32 34 36 38 41 43 43 42 42 43 44 47 52 56 61 67 72 78 82 87 91 94 94 89 80 74 73
15 16 16 16 17 18 20 22 23 25 27 29 30 31 31 32 32 34 36 38 40 41 40 40 40 41 43 46 51 56 61 66 72 77 82 86 89 92 93 89 82 75 71 69
20 20 20 21 23 24 26 28 29 30 31 31 31 32 32 33 34 36 38 39 38 38 38 38 39 42 46 50 55 61 66 71 76 81 84 88 90 91 88 81 74 71 69 65
26 26 27 28 29 30 30 31 31 31 31 31 31 32 33 34 35 36 37 36 36 36 37 39 42 46 50 55 61 66 71 76 80 83 86 89 90 87 80 73 70 68 65 59
29 30 30 31 31 31 31 30 30 30 31 31 31 32 33 34 35 35 35 35 35 37 39 42 46 51 55 61 66 71 75 79 82 85 87 88 86 79 72 70 68 64 58 51
29 29 29 29 29 29 30 30 30 30 30 31 32 32 34 35 35 34 34 35 37 39 43 47 51 56 61 66 71 75 78 81 83 86 87 85 79 72 69 67 63 58 51 43
27 27 27 28 28 28 29 29 29 30 31 31 32 33 34 34 34 34 35 37 40 44 48 52 56 61 66 71 74 77 80 82 84 86 84 78 71 68 66 62 56 49 42 36
26 26 27 27 27 28 28 29 30 31 31 32 33 33 33 34 34 36 38 41 45 48 52 57 62 66 71 74 76 78 80 83 84 83 77 70 67 65 60 54 48 42 35 28
25 26 26 27 28 28 29 30 31 32 32 32 32 33 33 35 36 39 42 45 49 53 58 62 66 70 73 75 77 79 81 83 81 75 69 66 64 59 53 47 41 35 28 20
26 27 28 28 29 30 30 31 31 31 31 32 33 34 35 38 40 43 46 50 54 58 62 66 70 72 74 75 78 80 82 80 74 68 65 63 58 52 46 41 35 28 19 12
28 29 29 30 30 30 31 31 31 31 32 33 35 37 39 41 44 47 51 55 59 63 66 69 71 72 74 76 79 80 78 72 67 65 63 57 51 46 40 35 28 19 10 3
28 29 29 30 30 30 30 30 31 33 34 35 37 40 42 45 48 52 56 59 63 66 68 70 71 73 75 78 79 76 70 66 64 62 56 50 45 40 34 28 19 9 1 7
26 27 27 27 28 29 30 31 32 34 36 38 40 43 46 50 53 56 59 62 65 67 68 69 71 74 76 77 74 68 65 63 60 55 50 45 40 34 27 18 7 3 10 15
24 25 26 27 29 30 31 33 35 37 39 42 45 48 51 54 57 59 61 63 65 66 68 70 72 74 75 71 66 64 62 58 53 48 44 40 34 27 17 6 5 14 18 21
Wind_Direction
193 201 200 197 195 196 197 200 205 211 219 225 228 234 242 247 253 258 262 266 269 272 275 278 280 282 284 286 287 289 292 294 296 299 302 304 307 309 311 312 313 312 312 312
188 198 201 201 202 202 202 207 211 214 222 233 238 242 246 253 259 264 267 270 273 277 279 280 281 283 285 286 288 291 294 296 299 301 304 306 309 311 312 312 312 312 313 314
196 202 204 207 211 214 215 218 220 223 232 243 246 249 253 259 265 269 271 274 276 277 278 279 281 283 286 288 290 293 296 298 301 303 306 308 310 311 312 312 312 313 315 316
207 210 215 217 220 223 224 226 229 231 238 246 250 254 259 264 268 271 272 273 274 275 277 279 282 285 287 289 292 295 298 300 302 305 307 309 310 311 311 312 314 315 316 317
218 221 223 226 226 227 229 231 234 237 242 247 253 257 260 265 268 269 270 271 274 276 279 282 284 287 289 292 295 297 299 301 304 306 308 309 310 310 312 313 315 316 317 318
224 226 228 230 233 234 234 237 239 242 246 250 253 256 260 263 264 266 269 272 276 279 282 285 287 289 292 294 296 298 301 303 306 307 308 309 310 311 313 314 316 317 318 319
225 226 228 230 234 237 236 234 238 242 245 247 250 254 255 258 263 267 271 275 279 282 285 287 289 291 293 296 297 300 303 305 307 308 309 310 311 312 314 315 317 318 319 320
222 217 213 220 227 230 228 227 232 237 241 243 246 251 255 259 264 270 275 279 282 285 287 289 290 293 295 297 299 302 304 306 307 308 309 310 312 314 315 317 318 319 319 320
221 217 216 221 227 229 229 230 234 239 243 247 251 256 261 266 271 276 279 282 284 286 288 290 292 294 296 299 302 304 306 307 308 309 310 312 314 315 317 318 319 320 320 321
223 221 224 227 230 234 237 238 240 244 249 254 259 264 269 273 277 280 282 284 286 288 289 291 293 296 299 302 304 306 307 307 308 310 312 314 316 317 318 319 320 321 321 322
223 223 227 231 235 238 238 242 246 250 254 259 265 270 275 280 283 285 286 287 289 290 292 294 297 300 303 304 305 306 307 308 310 311 314 316 318 318 319 320 321 322 323 323
222 224 227 229 231 230 235 242 249 257 264 270 275 280 283 286 288 289 289 290 291 293 295 298 301 302 304 305 306 307 309 310 312 314 316 318 319 320 321 322 323 324 323 323
213 214 217 221 224 230 242 253 263 272 278 283 286 288 290 291 292 292 292 293 294 296 299 300 302 303 304 305 307 309 310 312 314 316 318 319 319 320 322 323 324 324 324 324
212 217 223 228 238 250 261 270 277 283 286 289 291 292 292 292 292 292 293 295 297 299 300 301 302 303 304 306 308 310 313 315 317 318 319 320 321 322 323 324 324 324 324 325
227 233 241 250 259 266 273 278 282 285 287 289 290 291 291 291 291 292 294 296 299 300 300 301 302 303 305 308 310 313 315 317 319 319 320 320 321 322 323 324 325 325 326 326
246 251 257 263 269 274 278 280 282 285 287 288 288 288 288 289 291 294 297 299 300 299 299 300 302 305 308 310 313 316 318 319 320 320 320 321 322 323 324 325 325 326 327 327
258 261 265 270 273 276 279 281 283 285 286 286 286 286 288 291 294 297 298 299 298 298 299 302 305 308 311 314 316 318 319 319 320 320 320 321 323 324 325 325 326 327 328 328
264 267 269 271 273 275 278 280 281 282 283 284 285 288 291 295 297 297 297 296 297 299 302 305 309 312 314 317 318 319 319 319 319 320 321 322 324 324 325 326 327 327 328 328
265 267 269 271 272 274 276 278 279 281 282 285 288 292 294 295 295 294 294 295 298 302 306 309 312 314 316 317 318 318 319 319 319 320 322 323 324 325 325 326 327 327 328 329
263 265 266 268 270 272 274 276 278 281 284 288 290 292 292 292 291 292 294 298 302 306 309 311 313 315 316 317 318 318 319 319 320 321 322 323 324 325 326 327 327 328 329 330
263 264 265 267 269 272 274 277 280 283 286 288 289 289 289 290 291 294 298 302 305 308 310 312 314 316 317 317 318 318 318 319 320 322 323 323 324 325 326 327 328 329 330 332
262 264 266 268 270 273 276 278 281 283 285 286 286 287 289 292 295 299 302 305 307 309 312 313 315 316 317 317 317 318 319 320 321 322 323 323 324 325 326 327 328 329 330 333
263 264 267 269 272 275 277 279 281 283 285 286 288 290 293 296 299 302 304 306 309 311 313 314 315 316 316 317 317 318 320 321 322 322 323 324 325 326 327 327 328 328 330 335
264 266 269 271 274 277 279 281 283 285 287 289 292 295 298 300 302 304 306 308 310 312 313 314 315 316 316 317 318 319 321 321 322 322 323 324 325 326 327 327 327 327 330 359
266 269 271 274 276 279 281 283 286 289 291 294 297 299 301 302 304 306 308 309 311 312 313 314 315 315 316 317 319 320 321 322 322 323 324 325 326 326 326 326 326 326 79 131
270 272 274 276 279 282 285 288 291 293 295 297 299 300 302 303 305 307 309 310 311 312 313 314 315 315 317 319 320 321 321 322 323 324 325 326 326 326 326 325 324 144 140 136
273 275 278 280 283 286 289 291 293 295 296 298 299 301 303 304 306 308 309 310 311 312 313 314 315 317 319 320 321 321 322 323 325 325 326 326 326 326 325 324 145 143 140 137